DELTA 1 DEB, 10660

Orbit data source: Space-Track

DELTA 1 DEB, 10660 is space debris in LEO originally from a launch on Thu, 29 Jul 1976 UTC launched from the Air Force Western Test Range (AFWTR). Debris objects in space refer to the collection of defunct objects orbiting the Earth. Examples of debris include non-operational satellites, rocket bodies, and fragments generated from explosions, collisions, or faulty payload assembly.

Loading next visibility...
Identifier
10660, 1976-077W
Orbit
LEO
Country
Flag of USUS
Related business
Manufacturer
Unknown
Mission
Spacecraft
Bus & Motor
Unknown
Mass
Unknown
Launch date (UTC)
1976-07-29 (49 years ago)
Launch vehicle
Unknown
Launch site
Air Force Western Test Range (AFWTR)
Object type
Payload
Rocket body
Debris
Shape & HBR
Unknown shape, 0.2 m
Radar Cross Section
Medium (>0.1 m² and <1 m²)

Expand to show TLE details & history
Last TLE update: 19 hours ago

TLE from 19 hours ago
0 DELTA 1 DEB
1 10660U 76077W   25349.20118828  .00000094  00000-0  19957-2 0  9999
2 10660 102.2710 251.0934 0396001 324.4437 210.3295 11.67417584102614
Epoch: 2025-12-15T04:49Z
TLE epoch observation values (Epoch: 2025-12-15T04:49:42.667Z)
Latitude
7.193°
Longitude
-83.87169°
Altitude
2,115.64 km
Speed
6.733 km/s
True Right ascension
04h 50m 38s
True Declination
7° 09' 26"
Sunlit
Object was in full shadow at epoch
Visualization orbit readout
Latitude
Unknown
Longitude
Unknown
Altitude
Unknown
Speed
Unknown
Apparent Right ascension
Unknown
Apparent Declination
Unknown
Sunlit
N/A
Visualization observer readout
Local Sidereal Time
22:32:38
Azimuth
Unknown
Elevation
Unknown
Doppler factor
Unknown
Orbital elements
Apogee altitude
2,152.758 km
Perigee altitude
1,502.846 km
Semi-major axis
8,205.939 km
Eccentricity
0.0396
Inclination
102.271°
RAAN
251.0934°
Arg. of periapsis
324.4437°
True anomaly
208.13259°
Mean anomaly
210.3295°
Eccentric anomaly
209.22183°
Mean motion
2.91978 °/min
Orbital period
123.3 mins
BSTAR
0.0019957
Loading maneuver chart data...
Computing Atmospheric mass density...
Loading historical data...
Loading historical data...
Loading historical data...
Loading historical data...
Loading historical data...
Loading historical data...
Loading historical data...

Documentation

Showing up to 5 results
|